Location: Allaines
(49.9632°N, 2.9458°E)
Time: 08:07:08
(UTC+00:00)

Cosmos 1833 Rocket - Pass Details

Date: 09 April 2020
Orbit: 834 x 838 km, 71.0° (Epoch: 01 June)

Event Time Altitude Azimuth Distance (km) Brightness Sun altitude
Exits shadow 22:21:05 46° 255° (WSW) 1,111 3.3 -28.9°
Maximum altitude 22:22:25 59° 304° (WNW) 970 3.1 -29.0°
Drops below altitude 10° 22:27:59 10° 24° (NNE) 2,461 5.6 -29.4°
Sets 22:30:29 0° 28° (NNE) 3,398 6.4 -29.5°
